| time (UTC) | temp F | wind direction | speed MPH | gust MPH | rain 1hr in | rain 24hr in | rain mn in | humidity % | barometer mb |
| 20260508034823 | 75 | 146 | 0.0 | 0.0 | 0.00 | 0.00 | 0.00 | 74 | 1003.7 |
| 20260508033326 | 74 | 165 | 0.0 | 0.0 | 0.00 | 0.00 | 0.00 | 77 | 1003.9 |
| 20260508031834 | 74 | 225 | 0.0 | 0.0 | 0.00 | 0.00 | 0.00 | 77 | 1004.2 |
| 20260508030337 | 74 | 98 | 0.0 | 0.0 | 0.00 | 0.00 | 0.00 | 76 | 1004.5 |
| 20260508024844 | 74 | 195 | 0.0 | 0.0 | 0.00 | 0.00 | 0.00 | 76 | 1004.7 |
| 20260508023328 | 75 | 115 | 1.0 | 0.0 | 0.00 | 0.00 | 0.00 | 75 | 1004.9 |
| 20260508021834 | 75 | 120 | 1.0 | 0.0 | 0.00 | 0.00 | 0.00 | 74 | 1005.1 |
| 20260508020319 | 76 | 94 | 1.0 | 0.0 | 0.00 | 0.00 | 0.00 | 73 | 1005.2 |
| 20260508014826 | 76 | 110 | 0.0 | 0.0 | 0.00 | 0.00 | 0.00 | 72 | 1005.0 |
| 20260508013326 | 76 | 250 | 0.0 | 0.0 | 0.00 | 0.00 | 0.00 | 72 | 1004.9 |
| 20260508011839 | 76 | 114 | 0.0 | 0.0 | 0.00 | 0.00 | 0.00 | 72 | 1005.3 |
| 20260508010355 | 76 | 114 | 1.0 | 0.0 | 0.00 | 0.00 | 0.00 | 71 | 1004.9 |
| 20260508004816 | 76 | 196 | 0.0 | 0.0 | 0.00 | 0.00 | 0.00 | 72 | 1005.5 |
| 20260508003321 | 76 | 202 | 0.0 | 0.0 | 0.00 | 0.00 | 0.00 | 73 | 1005.5 |
| 20260508001830 | 75 | 202 | 0.0 | 0.0 | 0.00 | 0.00 | 0.00 | 73 | 1006.0 |
| 20260508000334 | 75 | 202 | 0.0 | 0.0 | 0.00 | 0.00 | 0.00 | 74 | 1006.1 |
| 20260507234818 | 73 | 202 | 0.0 | 0.0 | 0.00 | 0.00 | 0.00 | 76 | 1006.1 |
| 20260507233322 | 71 | 202 | 0.0 | 0.0 | 0.00 | 0.00 | 0.00 | 78 | 1006.4 |
| 20260507231831 | 71 | 202 | 0.0 | 0.0 | 0.00 | 0.00 | 0.00 | 78 | 1006.5 |
| 20260507230314 | 70 | 202 | 0.0 | 0.0 | 0.00 | 0.00 | 0.00 | 80 | 1006.6 |
| 20260507224820 | 69 | 202 | 0.0 | 0.0 | 0.00 | 0.00 | 0.00 | 81 | 1006.6 |
| 20260507223324 | 69 | 202 | 0.0 | 0.0 | 0.00 | 0.00 | 0.00 | 84 | 1006.7 |
| 20260507221826 | 68 | 202 | 0.0 | 0.0 | 0.00 | 0.00 | 0.00 | 86 | 1007.1 |
| 20260507220336 | 68 | 202 | 0.0 | 0.0 | 0.00 | 0.00 | 0.00 | 87 | 1007.1 |
| 20260507214818 | 67 | 202 | 0.0 | 0.0 | 0.00 | 0.00 | 0.00 | 87 | 1007.1 |
| 20260507213325 | 66 | 202 | 0.0 | 0.0 | 0.00 | 0.00 | 0.00 | 88 | 1007.1 |
| 20260507211832 | 66 | 202 | 0.0 | 0.0 | 0.00 | 0.00 | 0.00 | 89 | 1007.0 |
| 20260507210336 | 66 | 202 | 0.0 | 0.0 | 0.00 | 0.00 | 0.00 | 88 | 1007.0 |
| 20260507204842 | 66 | 202 | 0.0 | 0.0 | 0.00 | 0.00 | 0.00 | 89 | 1006.9 |
| 20260507203322 | 66 | 202 | 0.0 | 0.0 | 0.00 | 0.00 | 0.00 | 88 | 1007.0 |
| 20260507201829 | 66 | 202 | 0.0 | 0.0 | 0.00 | 0.00 | 0.00 | 88 | 1007.0 |
| 20260507200317 | 66 | 202 | 0.0 | 0.0 | 0.00 | 0.00 | 0.00 | 88 | 1006.9 |
| 20260507194845 | 66 | 202 | 0.0 | 0.0 | 0.00 | 0.00 | 0.00 | 88 | 1006.6 |
| 20260507193349 | 66 | 202 | 0.0 | 0.0 | 0.00 | 0.00 | 0.00 | 88 | 1006.4 |
| 20260507191836 | 66 | 202 | 0.0 | 0.0 | 0.00 | 0.00 | 0.00 | 88 | 1006.4 |
| 20260507190316 | 66 | 202 | 0.0 | 0.0 | 0.00 | 0.00 | 0.00 | 87 | 1006.4 |
| 20260507184823 | 66 | 202 | 0.0 | 0.0 | 0.00 | 0.00 | 0.00 | 87 | 1006.4 |
| 20260507183337 | 67 | 202 | 0.0 | 0.0 | 0.00 | 0.00 | 0.00 | 86 | 1006.5 |
| 20260507181817 | 67 | 202 | 0.0 | 0.0 | 0.00 | 0.00 | 0.00 | 86 | 1006.4 |
| 20260507180350 | 67 | 202 | 0.0 | 0.0 | 0.00 | 0.00 | 0.00 | 86 | 1006.7 |
| 20260507174857 | 67 | 210 | 0.0 | 0.0 | 0.00 | 0.00 | 0.00 | 86 | 1006.6 |
| 20260507173315 | 67 | 210 | 0.0 | 0.0 | 0.00 | 0.00 | 0.00 | 85 | 1006.7 |
| 20260507171822 | 67 | 213 | 0.0 | 0.0 | 0.00 | 0.00 | 0.00 | 85 | 1006.6 |
| 20260507170328 | 66 | 213 | 0.0 | 0.0 | 0.00 | 0.00 | 0.00 | 86 | 1006.8 |
| 20260507164817 | 66 | 213 | 0.0 | 0.0 | 0.00 | 0.00 | 0.00 | 86 | 1007.0 |
| 20260507163316 | 67 | 213 | 0.0 | 0.0 | 0.00 | 0.00 | 0.00 | 86 | 1007.2 |
| 20260507161830 | 67 | 213 | 0.0 | 0.0 | 0.00 | 0.00 | 0.00 | 85 | 1007.4 |
| 20260507160355 | 67 | 213 | 0.0 | 0.0 | 0.00 | 0.00 | 0.00 | 85 | 1007.5 |
| 20260507154833 | 67 | 213 | 0.0 | 0.0 | 0.00 | 0.00 | 0.00 | 84 | 1007.4 |
| 20260507153316 | 68 | 213 | 0.0 | 0.0 | 0.00 | 0.00 | 0.00 | 84 | 1007.5 |
| 20260507151844 | 68 | 213 | 0.0 | 0.0 | 0.00 | 0.00 | 0.00 | 84 | 1007.8 |
| 20260507150333 | 68 | 213 | 0.0 | 0.0 | 0.00 | 0.00 | 0.00 | 83 | 1007.9 |
| 20260507144815 | 68 | 213 | 0.0 | 0.0 | 0.00 | 0.00 | 0.00 | 83 | 1008.3 |
| 20260507143339 | 68 | 213 | 0.0 | 0.0 | 0.00 | 0.00 | 0.00 | 83 | 1008.4 |
| 20260507141824 | 68 | 213 | 0.0 | 0.0 | 0.00 | 0.00 | 0.00 | 83 | 1008.4 |
| 20260507140327 | 69 | 213 | 0.0 | 0.0 | 0.00 | 0.00 | 0.00 | 83 | 1008.6 |
| 20260507134815 | 69 | 215 | 0.0 | 0.0 | 0.00 | 0.00 | 0.00 | 82 | 1008.4 |
| 20260507133321 | 69 | 216 | 0.0 | 0.0 | 0.00 | 0.00 | 0.00 | 82 | 1008.4 |
| 20260507131821 | 70 | 215 | 0.0 | 0.0 | 0.00 | 0.00 | 0.00 | 82 | 1008.4 |
| 20260507130331 | 69 | 215 | 0.0 | 0.0 | 0.00 | 0.00 | 0.00 | 83 | 1008.5 |
| 20260507124858 | 69 | 215 | 0.0 | 0.0 | 0.00 | 0.00 | 0.00 | 84 | 1008.5 |
| 20260507123315 | 69 | 214 | 0.0 | 0.0 | 0.00 | 0.00 | 0.00 | 85 | 1008.6 |
| 20260507121823 | 69 | 215 | 0.0 | 0.0 | 0.00 | 0.00 | 0.00 | 85 | 1008.7 |
| 20260507120347 | 69 | 111 | 0.0 | 0.0 | 0.00 | 0.00 | 0.00 | 84 | 1008.5 |
| 20260507114832 | 69 | 140 | 0.0 | 0.0 | 0.00 | 0.00 | 0.00 | 85 | 1008.7 |
| 20260507113318 | 69 | 133 | 0.0 | 0.0 | 0.00 | 0.00 | 0.00 | 85 | 1008.6 |
| 20260507111830 | 69 | 124 | 0.0 | 0.0 | 0.00 | 0.00 | 0.00 | 86 | 1008.6 |
| 20260507110329 | 69 | 119 | 0.0 | 0.0 | 0.00 | 0.00 | 0.00 | 86 | 1008.4 |
| 20260507104816 | 69 | 29 | 0.0 | 0.0 | 0.00 | 0.00 | 0.00 | 86 | 1008.4 |
| 20260507103322 | 69 | 115 | 2.0 | 0.0 | 0.00 | 0.00 | 0.00 | 86 | 1008.1 |
| 20260507101829 | 70 | 109 | 2.0 | 0.0 | 0.00 | 0.00 | 0.00 | 86 | 1008.1 |
| 20260507100334 | 70 | 132 | 0.0 | 0.0 | 0.00 | 0.00 | 0.00 | 85 | 1007.9 |
| 20260507094816 | 70 | 161 | 1.0 | 0.0 | 0.00 | 0.00 | 0.00 | 85 | 1007.9 |
| 20260507093319 | 71 | 105 | 1.0 | 0.0 | 0.00 | 0.00 | 0.00 | 84 | 1007.8 |
| 20260507091828 | 71 | 101 | 3.0 | 0.0 | 0.00 | 0.00 | 0.00 | 83 | 1007.9 |
| 20260507090333 | 72 | 117 | 1.0 | 0.0 | 0.00 | 0.00 | 0.00 | 82 | 1007.7 |
| 20260507084814 | 72 | 122 | 1.0 | 0.0 | 0.00 | 0.00 | 0.00 | 81 | 1007.9 |
| 20260507083320 | 73 | 161 | 0.0 | 0.0 | 0.00 | 0.00 | 0.00 | 80 | 1008.0 |
| 20260507081849 | 73 | 110 | 0.0 | 0.0 | 0.00 | 0.00 | 0.00 | 78 | 1007.9 |
| 20260507080317 | 74 | 91 | 1.0 | 0.0 | 0.00 | 0.00 | 0.00 | 77 | 1008.1 |
| 20260507074845 | 74 | 188 | 2.0 | 0.0 | 0.00 | 0.00 | 0.00 | 77 | 1008.1 |
| 20260507073329 | 75 | 105 | 1.0 | 0.0 | 0.00 | 0.00 | 0.00 | 76 | 1008.4 |
| 20260507071830 | 74 | 186 | 1.0 | 0.0 | 0.00 | 0.00 | 0.00 | 76 | 1008.4 |
| 20260507070317 | 74 | 186 | 1.0 | 0.0 | 0.00 | 0.00 | 0.00 | 77 | 1008.5 |
| 20260507064825 | 74 | 146 | 1.0 | 0.0 | 0.00 | 0.00 | 0.00 | 77 | 1008.6 |
| 20260507063350 | 73 | 108 | 2.0 | 0.0 | 0.00 | 0.00 | 0.00 | 78 | 1008.5 |
| 20260507061836 | 73 | 101 | 1.0 | 0.0 | 0.00 | 0.00 | 0.00 | 79 | 1008.8 |
| 20260507060317 | 72 | 123 | 2.0 | 0.0 | 0.00 | 0.00 | 0.00 | 79 | 1009.4 |
| 20260507054843 | 72 | 103 | 2.0 | 0.0 | 0.00 | 0.00 | 0.00 | 79 | 1009.4 |
| 20260507053327 | 72 | 113 | 1.0 | 0.0 | 0.00 | 0.00 | 0.00 | 79 | 1009.6 |
| 20260507051836 | 72 | 232 | 3.0 | 0.0 | 0.00 | 0.00 | 0.00 | 79 | 1009.9 |
| 20260507050317 | 73 | 111 | 1.0 | 0.0 | 0.00 | 0.00 | 0.00 | 77 | 1010.0 |
| 20260507044844 | 73 | 98 | 1.0 | 0.0 | 0.00 | 0.00 | 0.00 | 77 | 1010.3 |
| 20260507043329 | 73 | 226 | 3.0 | 0.0 | 0.00 | 0.00 | 0.00 | 77 | 1010.6 |
| 20260507041837 | 73 | 164 | 1.0 | 0.0 | 0.00 | 0.00 | 0.00 | 77 | 1010.8 |
| 20260507040320 | 73 | 150 | 2.0 | 0.0 | 0.00 | 0.00 | 0.00 | 77 | 1011.0 |